Weather History for Olathe New Century, KS

Change the Weather History Date:

Tuesday, March 19, 2013

  Actual Average Record
Temperature  
Mean Temperature 33 °F -  
Max Temperature 39 °F 53 °F 73 °F (2004)
Min Temperature 27 °F 32 °F 27 °F (2013)
Degree Days  
Heating Degree Days 32    
Moisture  
Dew Point 28 °F    
Average Humidity 84    
Maximum Humidity 100    
Minimum Humidity 50    
Precipitation  
Precipitation 0.10 in - - ()
Sea Level Pressure  
Sea Level Pressure 30.23 in    
Wind  
Wind Speed 2 mph (SW)    
Max Wind Speed 8 mph    
Max Gust Speed -    
Visibility 4 miles    
Events Fog , Snow    
Averages and records for this station are not official NWS values.
T = Trace of Precipitation, MM = Missing Value Source: NWS Daily Summary

Daily Weather History Graph

Daily Weather History Graph

Search for Another Location

Airport:

Trip Planner

Search our weather history database for the weather conditions in past years. The results will help you decide how hot, cold, wet, or windy it might be!

Date:

Astronomy

Mar. 19, 2013 Rise Set
Actual Time 7:24 AM CDT 7:30 PM CDT
Civil Twilight 6:57 AM CDT 7:57 PM CDT
Nautical Twilight 6:26 AM CDT 8:28 PM CDT
Astronomical Twilight 5:55 AM CDT 9:00 PM CDT
Moon 12:18 PM CDT (3/19) 2:15 AM CDT (3/19)
Length of Visible Light 12h 59m
Length of Day
12h 06m
Waxing Crescent, 50% of the Moon is Illuminated
Mar 19
Waxing Crescent
Mar 19
First Quarter
Mar 27
Full
Apr 2
Last Quarter
Apr 10
New

Hourly Weather History & Observations

Time (CDT) Temp. Windchill Dew Point Humidity Pressure Visibility Wind Dir Wind Speed Gust Speed Precip Events Conditions
12:53 AM 27.0 °F 23.0 °F 17.1 °F 66% 30.11 in 10.0 mi NNE 3.5 mph - N/A   Clear
1:53 AM 28.9 °F - 17.1 °F 61% 30.12 in 10.0 mi Calm Calm - N/A   Clear
2:53 AM 28.0 °F - 17.1 °F 63% 30.11 in 10.0 mi Calm Calm - N/A   Clear
3:53 AM 27.0 °F 21.6 °F 18.0 °F 69% 30.12 in 10.0 mi West 4.6 mph - N/A   Mostly Cloudy
4:53 AM 28.0 °F - 16.0 °F 61% 30.11 in 10.0 mi Calm Calm - N/A   Overcast
5:53 AM 27.0 °F - 18.0 °F 69% 30.14 in 10.0 mi Calm Calm - N/A   Mostly Cloudy
6:53 AM 30.0 °F 26.5 °F 18.0 °F 61% 30.14 in 10.0 mi SSW 3.5 mph - N/A   Overcast
7:53 AM 30.9 °F 27.5 °F 21.0 °F 67% 30.18 in 10.0 mi NNW 3.5 mph - N/A   Overcast
8:53 AM 33.1 °F 30.0 °F 17.1 °F 52% 30.22 in 10.0 mi WSW 3.5 mph - 0.00 in   Overcast
9:53 AM 34.0 °F - 21.0 °F 59% 30.23 in 10.0 mi Calm Calm - N/A   Overcast
10:53 AM 36.0 °F 30.3 °F 19.0 °F 50% 30.25 in 9.0 mi West 6.9 mph - N/A   Overcast
11:34 AM 33.8 °F - 24.8 °F 70% 30.24 in 2.0 mi Calm Calm - 0.00 in Snow Light Snow
11:53 AM 33.1 °F - 27.0 °F 78% 30.27 in 1.5 mi Calm Calm - 0.00 in Snow Light Snow
12:25 PM 33.8 °F - 28.4 °F 81% 30.24 in 1.8 mi Calm Calm - 0.00 in Snow Light Snow
12:32 PM 33.8 °F - 28.4 °F 81% 30.25 in 1.2 mi Calm Calm - 0.00 in Snow Light Snow
12:35 PM 33.8 °F - 28.4 °F 81% 30.25 in 0.8 mi Calm Calm - 0.00 in Snow Light Snow
12:48 PM 32.0 °F - 28.4 °F 87% 30.25 in 0.8 mi Calm Calm - 0.01 in Snow Light Snow
12:53 PM 33.1 °F - 28.9 °F 85% 30.28 in 0.8 mi Calm Calm - 0.01 in Snow Light Snow
1:07 PM 33.8 °F - 28.4 °F 81% 30.25 in 1.2 mi Calm Calm - 0.00 in Snow Light Snow
1:25 PM 32.0 °F - 28.4 °F 87% 30.26 in 0.5 mi Calm Calm - 0.01 in Fog , Snow Snow
1:35 PM 32.0 °F 28.7 °F 28.4 °F 87% 30.26 in 0.8 mi WSW 3.5 mph - 0.02 in Snow Light Snow
1:53 PM 32.0 °F - 30.0 °F 92% 30.28 in 0.5 mi Calm Calm - 0.03 in Fog , Snow Snow
2:19 PM 32.0 °F 28.7 °F 30.2 °F 93% 30.25 in 0.8 mi SSW 3.5 mph - 0.01 in Snow Light Snow
2:53 PM 32.0 °F 28.7 °F 30.0 °F 92% 30.27 in 0.8 mi South 3.5 mph - 0.04 in Snow Light Snow
2:58 PM 32.0 °F 28.7 °F 30.2 °F 93% 30.24 in 1.0 mi South 3.5 mph - 0.00 in Snow Light Snow
3:04 PM 33.8 °F - 30.2 °F 87% 30.24 in 3.0 mi Calm Calm - 0.00 in Snow Light Snow
3:35 PM 33.8 °F - 30.2 °F 87% 30.23 in 4.0 mi Calm Calm - 0.01 in Snow Light Snow
3:53 PM 34.0 °F 31.0 °F 32.0 °F 92% 30.27 in 4.0 mi SSW 3.5 mph - 0.01 in Snow Light Snow
4:36 PM 35.6 °F 31.7 °F 33.8 °F 93% 30.24 in 4.0 mi West 4.6 mph - 0.01 in Snow Light Snow
4:53 PM 36.0 °F 30.3 °F 34.0 °F 93% 30.27 in 7.0 mi WSW 6.9 mph - 0.01 in   Overcast
5:35 PM 37.4 °F 32.8 °F 33.8 °F 87% 30.22 in 10.0 mi WSW 5.8 mph - N/A   Overcast
5:53 PM 37.9 °F 32.1 °F 35.1 °F 89% 30.23 in 10.0 mi SSW 8.1 mph - N/A   Overcast
6:53 PM 39.0 °F 35.7 °F 35.1 °F 86% 30.24 in 10.0 mi SW 4.6 mph - N/A   Partly Cloudy
7:53 PM 36.0 °F - 33.1 °F 89% 30.25 in 10.0 mi Calm Calm - N/A   Clear
8:46 PM 33.8 °F - 30.2 °F 87% 30.24 in 8.0 mi Calm Calm - N/A   Partly Cloudy
8:53 PM 33.1 °F - 30.9 °F 92% 30.27 in 5.0 mi Calm Calm - N/A   Clear
9:01 PM 32.0 °F - 30.2 °F 93% 30.24 in 1.2 mi Calm Calm - N/A   Partly Cloudy
9:08 PM 32.0 °F - 30.2 °F 93% 30.24 in 0.2 mi Calm Calm - N/A Fog Fog
9:23 PM 30.2 °F - 30.2 °F 100% 30.25 in 4.0 mi Calm Calm - 0.00 in Snow Light Snow
9:31 PM 30.2 °F - 28.4 °F 93% 30.25 in 4.0 mi Calm Calm - 0.00 in Snow Light Snow
9:53 PM 32.0 °F - 30.9 °F 96% 30.29 in 4.0 mi Calm Calm - 0.00 in Snow Light Snow
10:00 PM 32.0 °F - 30.2 °F 93% 30.26 in 0.2 mi Calm Calm - 0.00 in Fog Fog
10:07 PM 32.0 °F - 30.2 °F 93% 30.26 in 0.5 mi Calm Calm - 0.00 in Fog Fog
10:14 PM 32.0 °F - 30.2 °F 93% 30.25 in 0.2 mi Calm Calm - 0.00 in Fog Fog
10:24 PM 30.2 °F 25.4 °F 28.4 °F 93% 30.25 in 0.2 mi SW 4.6 mph - 0.00 in Fog Light Freezing Fog
10:32 PM 30.2 °F 25.4 °F 28.4 °F 93% 30.25 in 0.2 mi SW 4.6 mph - 0.00 in Fog Light Freezing Fog
10:38 PM 30.2 °F 25.4 °F 28.4 °F 93% 30.25 in 0.5 mi WSW 4.6 mph - 0.00 in Fog Light Freezing Fog
10:51 PM 32.0 °F 28.7 °F 30.2 °F 93% 30.25 in 2.0 mi WSW 3.5 mph - 0.00 in   Mostly Cloudy
10:53 PM 32.0 °F 28.7 °F 30.9 °F 96% 30.28 in 3.0 mi SW 3.5 mph - 0.00 in   Mostly Cloudy
11:07 PM 33.8 °F 30.8 °F 30.2 °F 87% 30.25 in 1.5 mi SW 3.5 mph - N/A   Scattered Clouds
11:12 PM 30.2 °F 26.7 °F 30.2 °F 100% 30.25 in 0.5 mi SW 3.5 mph - N/A Fog Light Freezing Fog
11:19 PM 32.0 °F - 30.2 °F 93% 30.25 in 0.2 mi Calm Calm - N/A Fog Fog
11:34 PM 32.0 °F 28.7 °F 30.2 °F 93% 30.24 in 0.2 mi South 3.5 mph - N/A Fog Fog
11:44 PM 30.2 °F 26.7 °F 28.4 °F 93% 30.24 in 1.0 mi South 3.5 mph - N/A   Mist
11:53 PM 30.0 °F 26.5 °F 28.9 °F 96% 30.27 in 0.5 mi South 3.5 mph - N/A Fog Light Freezing Fog